Total_Precipitation_Accumulation
0.01 0.04 0.17 0.36 0.78 1.13 1.12 0.70 0.52 0.50 0.55 0.53 0.47 0.44 0.47 0.43 0.55 0.97 0.67 0.38 0.16 0.06 0.04 0.09 0.16 0.14 0.12 0.12 0.11 0.12 0.11 0.10 0.10 0.09 0.07 0.06 0.06 0.06 0.06 0.05 0.06 0.07 0.09 0.09 0.08 0.09 0.09 0.11 0.11
0.02 0.07 0.24 0.63 0.96 1.11 1.07 0.61 0.35 0.44 0.53 0.66 0.64 0.50 0.40 0.41 0.41 0.33 0.29 0.42 0.15 0.08 0.06 0.05 0.13 0.13 0.11 0.10 0.11 0.11 0.11 0.10 0.09 0.07 0.06 0.06 0.07 0.08 0.08 0.07 0.07 0.08 0.09 0.09 0.09 0.08 0.09 0.09 0.11
0.03 0.12 0.26 0.53 0.66 0.72 0.77 0.47 0.35 0.31 0.49 0.72 0.69 0.46 0.46 0.48 0.39 0.26 0.25 0.34 0.17 0.12 0.07 0.07 0.12 0.12 0.10 0.10 0.11 0.11 0.11 0.09 0.09 0.08 0.07 0.07 0.08 0.10 0.11 0.10 0.10 0.10 0.11 0.12 0.11 0.09 0.09 0.10 0.12
0.05 0.16 0.34 0.38 0.27 0.23 0.35 0.41 0.43 0.42 0.61 0.74 0.60 0.50 0.49 0.47 0.41 0.27 0.24 0.35 0.22 0.18 0.11 0.10 0.14 0.14 0.12 0.11 0.11 0.12 0.12 0.11 0.10 0.09 0.08 0.08 0.09 0.11 0.11 0.11 0.13 0.13 0.14 0.14 0.13 0.12 0.12 0.14 0.16
0.04 0.17 0.34 0.26 0.16 0.14 0.18 0.25 0.33 0.49 0.67 0.77 0.66 0.63 0.64 0.46 0.38 0.31 0.24 0.35 0.28 0.22 0.19 0.18 0.20 0.19 0.15 0.13 0.13 0.14 0.13 0.12 0.11 0.09 0.09 0.10 0.11 0.12 0.12 0.11 0.11 0.12 0.16 0.18 0.20 0.19 0.17 0.18 0.20
0.04 0.12 0.22 0.14 0.07 0.09 0.15 0.20 0.35 0.54 0.56 0.64 0.74 0.81 0.72 0.51 0.44 0.36 0.34 0.42 0.35 0.25 0.22 0.27 0.26 0.23 0.19 0.18 0.18 0.16 0.15 0.14 0.13 0.12 0.13 0.14 0.15 0.15 0.14 0.12 0.12 0.13 0.15 0.18 0.23 0.25 0.24 0.23 0.26
0.02 0.05 0.08 0.06 0.03 0.06 0.15 0.27 0.32 0.45 0.51 0.72 0.77 0.79 0.78 0.70 0.57 0.46 0.56 0.78 0.68 0.49 0.36 0.31 0.26 0.26 0.24 0.24 0.25 0.24 0.21 0.19 0.18 0.16 0.16 0.17 0.20 0.20 0.21 0.23 0.21 0.19 0.22 0.23 0.26 0.27 0.33 0.32 0.32
0.01 0.02 0.04 0.03 0.02 0.06 0.14 0.22 0.31 0.43 0.55 0.62 0.70 0.82 0.83 0.76 0.65 0.68 0.85 1.17 1.20 1.01 0.75 0.46 0.36 0.36 0.33 0.29 0.30 0.30 0.26 0.24 0.24 0.23 0.22 0.25 0.29 0.33 0.37 0.36 0.34 0.34 0.37 0.37 0.35 0.33 0.37 0.45 0.45
0.00 0.02 0.02 0.02 0.01 0.08 0.17 0.22 0.27 0.32 0.41 0.63 0.81 0.96 0.87 0.69 0.71 0.89 1.06 1.28 1.35 1.17 1.00 0.79 0.65 0.51 0.45 0.43 0.37 0.39 0.37 0.35 0.35 0.43 0.44 0.46 0.54 0.59 0.66 0.61 0.62 0.61 0.63 0.68 0.67 0.63 0.67 0.71 0.65
0.00 0.01 0.01 0.00 0.00 0.03 0.10 0.20 0.25 0.36 0.56 1.02 1.29 1.17 0.94 0.82 0.91 1.12 1.25 1.23 1.29 1.27 1.15 1.13 0.98 0.81 0.75 0.71 0.69 0.73 0.70 0.72 0.70 0.85 0.88 0.96 1.05 0.88 0.70 0.87 1.03 0.98 1.08 1.15 1.22 1.41 1.32 1.15 0.94
0.00 0.00 0.00 0.00 0.00 0.02 0.05 0.12 0.23 0.41 0.77 1.30 1.53 1.24 1.07 1.02 1.07 1.18 1.45 1.51 1.57 1.52 1.36 1.40 1.26 1.13 1.13 1.10 1.05 1.07 1.13 1.21 1.23 1.28 1.35 1.54 1.49 1.22 1.02 1.20 1.46 1.44 1.49 1.53 1.79 2.00 1.62 1.53 1.50
0.00 0.00 0.00 0.00 0.01 0.01 0.04 0.11 0.29 0.55 0.94 1.23 1.15 0.97 1.00 1.17 1.25 1.39 1.64 1.93 1.98 2.03 1.89 1.68 1.56 1.65 1.61 1.46 1.38 1.23 1.12 1.16 1.25 1.35 1.41 1.74 1.81 1.73 1.63 1.66 1.58 1.74 1.83 2.05 2.10 2.10 1.93 1.92 1.84
0.00 0.00 0.00 0.00 0.01 0.03 0.06 0.13 0.33 0.65 0.86 0.92 0.80 0.82 1.08 1.34 1.42 1.78 2.19 2.30 2.26 2.46 2.58 2.38 2.26 2.13 1.90 1.80 1.51 1.30 1.18 1.09 1.06 1.24 1.41 1.70 1.88 1.92 2.00 1.70 1.61 1.57 1.74 1.98 1.95 1.84 1.92 2.03 2.05
0.00 0.00 0.01 0.01 0.02 0.04 0.07 0.14 0.33 0.56 0.65 0.66 0.72 0.93 1.13 1.46 1.58 1.99 2.53 2.66 2.79 2.97 3.15 3.07 2.95 2.66 2.32 2.03 1.78 1.65 1.39 1.18 1.03 1.16 1.21 1.58 1.88 1.84 1.70 1.69 1.67 1.58 1.72 1.77 1.83 1.87 2.07 2.13 2.21
0.00 0.01 0.06 0.07 0.05 0.06 0.07 0.19 0.40 0.60 0.70 0.64 0.78 0.97 1.31 1.64 1.85 2.17 2.45 2.83 3.22 3.54 3.60 3.54 3.51 3.25 3.02 2.72 2.29 1.91 1.66 1.37 1.29 1.20 1.14 1.45 1.70 1.74 1.73 1.65 1.51 1.54 1.65 1.75 1.78 1.81 1.90 1.81 1.87
0.02 0.05 0.15 0.16 0.10 0.10 0.11 0.39 0.69 0.68 0.69 0.71 0.83 1.13 1.44 1.71 2.09 2.26 2.52 2.85 3.23 3.72 4.05 4.08 3.58 3.40 3.26 3.02 2.61 2.22 2.03 1.88 1.69 1.32 1.18 1.22 1.40 1.49 1.52 1.37 1.35 1.44 1.35 1.37 1.42 1.39 1.42 1.45 1.59
0.05 0.09 0.16 0.25 0.16 0.13 0.24 0.70 1.00 0.76 0.61 0.71 0.92 1.15 1.53 1.80 2.20 2.32 2.46 2.65 3.10 3.90 4.66 4.62 4.07 3.60 3.26 3.05 2.85 2.58 2.29 1.96 1.68 1.42 1.26 1.12 1.05 0.97 1.01 0.96 0.97 1.02 1.02 1.02 0.98 1.14 1.20 1.26 1.36
0.05 0.10 0.22 0.35 0.22 0.20 0.30 0.67 0.70 0.63 0.79 0.77 0.82 1.02 1.32 1.43 1.74 2.00 2.26 2.67 3.39 4.42 5.11 5.03 4.42 3.85 3.42 3.13 2.83 2.52 2.15 1.85 1.50 1.37 1.21 0.97 0.91 0.80 0.76 0.71 0.72 0.68 0.70 0.77 0.81 0.86 0.93 0.94 0.99
0.04 0.09 0.22 0.26 0.20 0.28 0.36 0.56 0.66 0.76 0.94 0.94 0.80 0.83 1.12 1.30 1.55 1.89 2.43 3.21 4.22 5.03 5.24 4.69 4.14 3.72 3.25 2.79 2.16 1.69 1.45 1.31 1.10 0.92 0.77 0.67 0.61 0.61 0.63 0.55 0.53 0.50 0.50 0.52 0.54 0.61 0.66 0.66 0.74
0.06 0.08 0.19 0.26 0.18 0.21 0.35 0.65 0.94 0.91 0.83 0.81 0.81 0.74 0.92 1.29 1.72 2.29 3.25 3.87 4.08 4.11 3.75 3.29 2.95 2.69 2.25 1.78 1.44 1.23 1.11 0.95 0.78 0.66 0.60 0.52 0.46 0.45 0.43 0.42 0.40 0.39 0.40 0.43 0.45 0.47 0.48 0.48 0.56
0.10 0.10 0.18 0.25 0.15 0.16 0.36 0.79 1.06 1.07 0.83 0.69 0.66 0.60 0.85 1.29 1.85 2.60 3.16 3.22 2.87 2.47 2.24 2.15 2.11 1.77 1.57 1.40 1.23 1.10 1.02 0.84 0.69 0.59 0.48 0.40 0.34 0.33 0.33 0.32 0.31 0.34 0.37 0.39 0.41 0.40 0.40 0.39 0.40
0.09 0.06 0.06 0.09 0.15 0.33 0.52 1.02 1.16 0.95 0.87 0.71 0.66 0.63 0.75 1.03 1.32 1.74 1.96 1.79 1.72 1.74 1.76 1.86 1.83 1.52 1.35 1.21 1.00 0.80 0.70 0.61 0.52 0.46 0.42 0.39 0.32 0.28 0.25 0.25 0.23 0.23 0.29 0.36 0.34 0.39 0.39 0.36 0.30
0.04 0.03 0.04 0.11 0.22 0.41 0.60 0.84 0.94 0.73 0.86 0.68 0.52 0.49 0.53 0.70 0.78 0.86 0.94 0.96 1.04 1.13 1.33 1.56 1.64 1.55 1.34 1.17 1.01 0.88 0.72 0.64 0.58 0.55 0.51 0.46 0.38 0.32 0.28 0.27 0.24 0.21 0.21 0.25 0.28 0.36 0.40 0.40 0.34
0.03 0.05 0.12 0.23 0.39 0.89 0.84 0.81 1.00 0.89 0.88 0.66 0.47 0.38 0.43 0.56 0.63 0.65 0.63 0.67 0.79 0.90 1.03 1.23 1.41 1.51 1.44 1.27 1.09 0.96 0.83 0.73 0.64 0.59 0.55 0.48 0.41 0.37 0.31 0.28 0.27 0.24 0.22 0.20 0.20 0.26 0.33 0.39 0.40
0.05 0.07 0.24 0.57 0.98 1.13 0.70 0.77 1.03 0.76 0.66 0.49 0.28 0.23 0.34 0.52 0.64 0.65 0.57 0.50 0.51 0.60 0.72 0.78 0.90 1.08 1.14 1.08 0.97 0.91 0.85 0.69 0.56 0.48 0.43 0.43 0.38 0.34 0.29 0.26 0.25 0.24 0.25 0.23 0.22 0.22 0.25 0.31 0.37
0.05 0.04 0.11 0.21 0.32 0.51 0.65 1.03 1.15 0.79 0.51 0.27 0.15 0.17 0.27 0.38 0.40 0.42 0.38 0.31 0.25 0.30 0.42 0.50 0.61 0.73 0.86 0.84 0.78 0.72 0.67 0.52 0.44 0.48 0.38 0.37 0.40 0.39 0.36 0.28 0.24 0.23 0.23 0.23 0.23 0.22 0.23 0.26 0.31
0.05 0.03 0.04 0.07 0.11 0.31 0.64 0.93 0.87 0.67 0.47 0.28 0.18 0.14 0.13 0.15 0.16 0.20 0.24 0.23 0.19 0.20 0.27 0.37 0.49 0.60 0.69 0.73 0.70 0.59 0.53 0.48 0.45 0.43 0.39 0.34 0.41 0.42 0.39 0.32 0.25 0.23 0.24 0.23 0.23 0.23 0.25 0.27 0.29
0.05 0.04 0.04 0.05 0.11 0.22 0.48 0.85 0.99 0.79 0.53 0.29 0.21 0.16 0.14 0.14 0.13 0.13 0.14 0.17 0.15 0.16 0.20 0.31 0.43 0.55 0.60 0.63 0.61 0.51 0.53 0.49 0.46 0.42 0.41 0.39 0.38 0.37 0.35 0.30 0.25 0.25 0.26 0.26 0.26 0.26 0.28 0.30 0.36
0.07 0.06 0.06 0.05 0.07 0.13 0.32 0.52 0.47 0.39 0.31 0.23 0.20 0.14 0.12 0.10 0.09 0.08 0.09 0.12 0.13 0.14 0.16 0.23 0.31 0.41 0.46 0.49 0.49 0.47 0.47 0.46 0.46 0.45 0.42 0.41 0.40 0.40 0.35 0.32 0.29 0.26 0.25 0.28 0.31 0.29 0.28 0.30 0.36
0.09 0.09 0.09 0.08 0.07 0.09 0.15 0.32 0.26 0.25 0.24 0.19 0.16 0.12 0.09 0.08 0.07 0.06 0.08 0.10 0.13 0.15 0.16 0.18 0.23 0.26 0.31 0.36 0.37 0.40 0.43 0.42 0.41 0.40 0.39 0.40 0.38 0.38 0.37 0.34 0.29 0.24 0.22 0.28 0.33 0.33 0.31 0.32 0.35